Flock 4be-16

operational
NORAD ID: 60483 Int'l Des: 2024-149 Owner: PLAN Country: US Constellation: planet
LEOCIRCULARRETROGRADE

About Flock 4be-16

Description loading...

Live Position

Loading 3D Globe...

Upcoming Passes

Altitude History

Altitude vs Time

uPlot chart will show altitude changes over time

Two-Line Element Set

1 60483U 24149R 26063.20512020 .00194645 00000-0 17917-2 0 9996
2 60483 97.3732 148.5262 0006654 243.8368 116.2208 15.67021833 86300
Epoch: Mar 4, 2026 • Age: 11 hours

Current Status

Altitude 387.8 km
Velocity 7.68 km/s
Sub-Earth Point -59.95°S, 162.5°W
Launch Date Aug 16, 2024
Age 1.5 years
Type earth observation

Technical Details

Classification Payload
Mass 5.70 kg
Dry Mass 5.70 kg
Total Mass 5.70 kg
Length 0.30 m
Diameter 0.10 m
Span 0.30 m
Shape Box+2 pan
Manufacturer PLAN
Bus Type Cubesat 3U
Phase Status In Orbit
Owner/State PLAN/US

Large Constellations

Loading constellations...